Hourly Data Report for August 10, 2003

SHERBROOKE A
QUEBEC

45°26'00.000" N
71°41'00.000" W
241.40 m
7028124
71610
YSC

Download Data

Hourly Data (August 2003)
Hourly Data Report for August 10, 2003
TIME
LST
Temp Definition
°C
Dew Point Definition
°C
Rel Hum Definition
%
Precip. Amount Definition
mm

Wind Dir Definition
10's deg

Wind Spd Definition
km/h
Visibility Definition
km
Stn Press Definition
kPa
Hmdx Definition


Wind Chill Definition


Weather Definition


00:00 20.5 19.5 94   9 6 6.4 98.86 28    
01:00 20.0 19.1 95   8 4 2.9 98.82 27   Rain
02:00 20.2 19.3 95   7 4 4.8 98.79 27   Rain
03:00 20.2 19.3 95   7 4 3.9 98.74 27   Rain
04:00 20.2 19.3 95   6 4 3.5 98.71 27   Rain
05:00 20.2 19.3 95   8 4 4.8 98.71 27   Rain
06:00 20.3 19.4 95   6 6 4.8 98.70 27   Rain
07:00 20.8 19.9 95   7 6 3.2 98.67 28   Rain, Fog
08:00 21.2 20.2 94   5 4 12.9 98.63 29   Rain
09:00 22.1 20.3 90   9 4 24.1 98.63 30   Cloudy
10:00 22.5 20.6 89   25 6 19.3 98.62 31   Rain
11:00 23.3 20.7 85   23 7 24.1 98.59 31   Rain Showers
12:00 25.4 20.8 76   24 11 24.1 98.56 34   Mostly Cloudy
13:00 25.6 20.6 74   30 6 24.1 98.50 34   Mostly Cloudy
14:00 27.2 20.4 66   20 6 24.1 98.44 35   Mostly Cloudy
15:00 20.2 19.0 93   31 11 4.8 98.45 27   Thunderstorms,Rain Showers
16:00 22.0 20.3 90   33 4 24.1 98.41 30   Mostly Cloudy
17:00 21.2 19.8 92   25 4 15.0 98.38 29    
18:00 21.1 19.8 92   11 6 15.0 98.38 29    
19:00 20.9 19.9 94   14 9 12.9 98.41 28    
20:00 20.6 19.6 94     0 15.0 98.39 28   Rain
21:00 20.4 19.6 95   25 6 8.0 98.44 28   Rain
22:00 20.0 19.2 95   27 4 5.6 98.44 27    
23:00 19.8 19.0 95   20 7 15.0 98.43      

Notes on Data Quality.

Legend

  • E = Estimated
  • M = Missing
  • NA = Not Available*
  • [empty] = Indicates an unobserved value
Date modified: